#timestamp,LO_Frequency,Hit,StdDev 
1591509615.5,286047002.8,N
1591509635.4,286047001.0,N
1591509655.2,286047000.5,N
1591509675.0,286047000.9,N
1591509675.9,286047000.9,N
1591509695.8,286047002.5,N
1591509715.6,286047002.3,N
1591509735.5,286047000.1,N
1591509755.3,286046999.7,N
1591509775.1,286047002.0,N
1591509795.9,286047002.3,N
1591509815.7,286047000.7,N
1591509835.5,286046999.9,N
1591509855.4,286046998.5,N
1591509875.2,286046998.8,N
1591509895.1,286047000.6,N
1591509915.1,286047002.3,N
1591509935.9,286047001.2,N
1591509955.7,286046998.2,N
1591509975.5,286047000.0,N
1591509995.4,286046998.4,N
1591510015.2,286046998.1,N
1591510035.0,286046999.1,N
1591510035.9,286046999.1,N
1591510055.8,286047000.4,N
1591510075.6,286047002.6,N
1591510095.5,286047001.8,N
1591510115.3,286047000.2,N
1591510135.1,286047001.5,N
1591510155.9,286047003.6,N
1591510175.7,286047001.3,N
1591510195.6,286047002.3,N
1591510215.4,286047000.2,N
1591510235.2,286046999.9,N
1591510255.1,286046999.7,N
1591510256.0,286046999.7,N
1591510275.8,286047002.6,N
1591510295.6,286047002.6,N
1591510315.5,286047002.5,N
1591510335.3,286047002.1,N
1591510355.2,286047001.5,N
1591510375.9,286047002.3,N
1591510395.7,286047001.5,N
1591510415.6,286047002.0,N
1591510435.4,286047001.0,N
1591510455.3,286047001.4,N
1591510475.1,286047002.4,N
1591510495.8,286046998.1,N
1591510515.7,286047001.3,N
1591510535.5,286047002.4,N
1591510555.4,286046999.9,N
1591510575.2,286047002.6,N
1591510595.0,286047000.7,N
1591510595.9,286047000.7,N
1591510615.8,286047000.7,N
1591510635.6,286047002.7,N
1591510655.4,286047002.0,N
1591510675.3,286047002.1,N
1591510695.1,286047003.2,N
1591510715.9,286047005.0,Y
1591510735.7,286047004.2,P
1591510755.5,286047001.6,N
1591510775.4,286047002.5,N
1591510795.2,286047004.1,Y
1591510815.1,286046996.6,P
1591510816.0,286046996.6,N
1591510835.8,286046998.7,N
1591510855.6,286046998.6,N
1591510875.5,286047000.8,N
1591510895.3,286047002.7,N
1591510915.1,286046998.4,N
1591510935.9,286047001.2,N
1591510955.7,286046998.1,N
1591510975.6,286046998.8,N
1591510995.4,286046999.0,N
1591511015.2,286046999.5,N
1591511035.1,286046999.4,N
1591511036.0,286046999.4,N
1591511055.8,286046999.5,N
1591511075.7,286046998.4,N
1591511095.5,286047001.2,N
1591511115.3,286047000.4,N
1591511135.2,286047000.1,N
1591511155.0,286047001.2,N
1591511155.9,286047001.2,N
1591511175.8,286046999.4,N
1591511195.6,286047000.5,N
1591511215.4,286047001.1,N
1591511235.3,286047001.1,N
1591511255.1,286046998.6,N
1591511275.8,286047001.0,N
1591511295.7,286047001.1,N
1591511315.5,286046998.9,N
1591511335.4,286046999.3,N
1591511355.2,286046999.6,N
1591511375.0,286046998.9,N
1591511375.9,286046998.9,N
1591511395.8,286046997.3,N
1591511415.6,286046997.0,N
1591511435.5,286046997.3,N
1591511455.3,286046996.8,N
1591511475.1,286046995.3,Y
1591511495.9,286046999.2,P
1591511515.7,286046999.1,P
1591511535.5,286046998.3,P
1591511555.4,286047000.4,N
1591511575.2,286047001.9,N
1591511595.1,286047001.4,N
1591511596.0,286047001.4,N
1591511615.8,286047001.9,N
1591511635.6,286047000.2,N
1591511655.5,286047001.4,N
1591511675.3,286047001.3,N
1591511695.2,286047001.6,N
1591511715.9,286047002.5,N
1591511735.7,286047000.3,N
1591511755.6,286046999.8,N
1591511775.4,286047000.5,N
1591511795.3,286046998.2,N
1591511815.1,286046999.7,N
1591511816.0,286046999.7,N
1591511835.8,286047002.0,N
1591511855.7,286047002.1,N
1591511875.5,286047000.2,N
1591511895.3,286046999.9,N
1591511915.2,286047002.1,N
1591511935.0,286047002.6,N
1591511935.9,286047002.6,N
1591511955.8,286046999.9,N
1591511975.6,286047000.1,N
1591511995.4,286047002.4,N
1591512015.3,286047001.7,N
1591512035.1,286047003.2,N
1591512055.9,286047006.0,Y
1591512075.7,286047001.6,P
1591512095.5,286047000.0,N
1591512115.4,286047001.1,N
1591512135.2,286047000.7,N
1591512155.0,286047000.4,N
1591512156.0,286047000.4,N
1591512175.8,286047001.9,Y
1591512195.6,286046998.6,P
1591512215.5,286046998.2,N
1591512235.3,286047002.4,N
1591512255.1,286047000.2,N
1591512275.9,286047001.9,N
1591512295.7,286047000.5,N
1591512315.6,286047002.7,N
1591512335.4,286046999.2,N
1591512355.2,286046998.4,N
1591512375.1,286046997.8,N
1591512376.0,286046997.8,N
1591512395.8,286047001.2,N
1591512415.7,286046999.0,N
1591512435.5,286046995.9,N
1591512455.3,286046999.6,N
1591512475.2,286047002.8,N
1591512495.0,286047000.4,N
1591512495.9,286047000.4,N
1591512515.7,286047000.2,N
1591512535.6,286046998.8,N
1591512555.4,286046999.6,N
1591512575.3,286046998.0,N
1591512595.1,286046998.2,N
1591512615.8,286046999.0,N
1591512635.7,286046998.2,N
1591512655.5,286047000.3,N
1591512675.4,286047000.5,N
1591512695.2,286047000.1,N
1591512715.0,286046998.4,N
1591512715.9,286046998.4,N
1591512735.8,286046998.7,N
1591512755.6,286046999.4,N
1591512775.5,286046997.4,N
1591512795.3,286046997.7,N
1591512815.1,286046996.6,N
1591512835.9,286046999.2,N
1591512855.7,286046997.8,N
1591512875.5,286046998.5,N
1591512895.4,286046997.5,N
1591512915.2,286046995.3,Y
1591512935.1,286046994.9,P
1591512936.0,286046994.9,N
1591512955.8,286046994.9,N
1591512975.6,286046995.9,N
1591512995.5,286046996.3,N
1591513015.3,286046995.2,Y
1591513035.2,286046996.8,P
1591513055.9,286046997.9,P
1591513075.7,286046997.4,P
1591513095.6,286046996.6,Y
1591513115.4,286047000.4,P
1591513135.3,286047003.8,N
1591513155.1,286047002.4,N
1591513156.0,286047002.4,N
1591513175.8,286047002.4,N
1591513195.7,286047000.0,N
